Regional Weather Roundup
Issued by NWS

Home | Current Version | Previous Version | Text Only | Print | Product List | Glossary Off
Versions: 1 2 3 4 5 6 7 8 9 10 11 12 13 14 15 16 17 18 19 20 21 22 23 24 25 26 27 28 29 30 31 32 33 34 35 36 37 38 39 40 41 42 43 44 45 46 47 48 49 50

000
ASUS43 KFSD 042110
RWRSD

WEATHER ROUNDUP FOR SOUTH DAKOTA
NATIONAL WEATHER SERVICE SIOUX FALLS SD
400 PM CDT WED MAY 04 2016

NOTE: "FAIR" INDICATES FEW OR NO CLOUDS BELOW 12,000 FEET WITH NO
SIGNIFICANT WEATHER AND/OR OBSTRUCTIONS TO VISIBILITY.


SDZ001>005-009-010-012>017-042200-
NORTHWEST AND NORTH CENTRAL SOUTH DAKOTA

CITY           SKY/WX    TMP DP  RH WIND       PRES   REMARKS
BUFFALO          N/A     79  37  22 SE14G23   29.98F
FAITH            N/A     76  44  32 S9        30.06F
MOBRIDGE       SUNNY     75  42  30 SE6       30.02F
$$

SDZ012>016-024>037-041>051-057-063-072>074-042200-
SOUTHWEST AND SOUTH CENTRAL SOUTH DAKOTA

CITY           SKY/WX    TMP DP  RH WIND       PRES   REMARKS
RAPID CTY ARPT SUNNY     75  40  28 S12       30.08F
PIERRE         SUNNY     72  34  24 CALM      30.05F
CUSTER         SUNNY     67  32  27 SE13G24   30.17F
ELLSWORTH AFB  SUNNY     77  41  27 SE14G24   30.06F
PHILIP         SUNNY     76  43  30 VRB3      30.06F
PINE RIDGE     SUNNY     75  35  23 CALM      30.10F
WINNER         FAIR      71  37  28 NW5       30.09F
$$

SDZ004>011-016>023-039-040-042200-
NORTHEAST SOUTH DAKOTA

CITY           SKY/WX    TMP DP  RH WIND       PRES   REMARKS
ABERDEEN       SUNNY     72  31  22 NW10      30.04F
WATERTOWN      SUNNY     68  29  23 NW14      30.03F
BROOKINGS      SUNNY     67  34  29 NW13G20   30.01F
SISSETON         N/A     70  26  19 N13G21    30.01F
$$

SDZ017-020-022-023-036>040-048>070-042200-
SOUTHEAST SOUTH DAKOTA

CITY           SKY/WX    TMP DP  RH WIND       PRES   REMARKS
SIOUX FALLS    MOSUNNY   67  36  31 N14G24    30.02F
HURON          SUNNY     70  34  26 N8G20     30.04F
CHAMBERLAIN    SUNNY     71  38  30 W5        30.08S
MITCHELL       SUNNY     69  36  29 NW13G18   30.06F
YANKTON        SUNNY     66  36  32 N10       30.05F
$$

ABBREVIATIONS USED IN REMARKS
   TC - TEMPERATURE IN CELSIUS
  WCI - WIND CHILL INDEX
   HX - HEAT INDEX
  VSB - VISIBILITY





USA.gov is the U.S. government's official web portal to all federal, state and local government web resources and services.